Salem, IL

9:14 AM CDT on April 29, 2017 (GMT -0500)
Salem-Leckrone

Weather History for KSLO - October, 2012

Change the Weather History Date:

Sunday, October 14, 2012

  Actual Average Record
Temperature  
Mean Temperature 65 °F -  
Max Temperature 75 °F 71 °F 87 °F (1989)
Min Temperature 54 °F 45 °F 29 °F (1979)
Growing Degree Days 15 (Base 50)    
Moisture  
Dew Point 56 °F    
Average Humidity 69    
Maximum Humidity 90    
Minimum Humidity 43    
Precipitation  
Precipitation 0.16 in - - ()
Sea Level Pressure  
Sea Level Pressure 29.79 in    
Wind  
Wind Speed 16 mph (SW)    
Max Wind Speed 32 mph    
Max Gust Speed 45 mph    
Visibility 9 miles    
Events Rain    
Averages and records for this station are not official NWS values.
T = Trace of Precipitation, MM = Missing Value Source: NWS Daily Summary

Daily Weather History Graph

Daily Weather History Graph

Search for Another Location

Airport or City:

Trip Planner

Search our weather history database for the weather conditions in past years. The results will help you decide how hot, cold, wet, or windy it might be!

Date:

Astronomy

Oct. 14, 2012 Rise Set
Actual Time 7:04 AM CDT 6:18 PM CDT
Civil Twilight 6:37 AM CDT 6:44 PM CDT
Nautical Twilight 6:06 AM CDT 7:15 PM CDT
Astronomical Twilight 5:36 AM CDT 7:46 PM CDT
Moon 6:03 AM CDT (10/14) 5:38 PM CDT (10/14)
Length of Visible Light 12h 07m
Length of Day
11h 13m
Waning Crescent, 1% of the Moon is Illuminated
Oct 14
Waning Crescent
Oct 15
New
Oct 21
First Quarter
Oct 29
Full
Nov 6
Last Quarter

Hourly Weather History & Observations

Time (CDT) Temp. Dew Point Humidity Pressure Visibility Wind Dir Wind Speed Gust Speed Precip Events Conditions
12:15 AM 70.9 °F 56.3 °F 60% 29.84 in 10.0 mi South 12.7 mph 18.4 mph N/A   Clear
12:35 AM 71.6 °F 56.5 °F 59% 29.84 in 10.0 mi South 10.4 mph 20.7 mph N/A   Clear
12:55 AM 71.4 °F 56.7 °F 60% 29.84 in 10.0 mi South 15.0 mph - N/A   Clear
1:15 AM 71.6 °F 57.0 °F 60% 29.85 in 10.0 mi South 12.7 mph 21.9 mph N/A   Scattered Clouds
1:35 AM 72.1 °F 56.8 °F 58% 29.84 in 10.0 mi South 15.0 mph 23.0 mph N/A   Mostly Cloudy
1:55 AM 72.0 °F 56.8 °F 59% 29.83 in 10.0 mi South 15.0 mph 20.7 mph N/A   Mostly Cloudy
2:15 AM 72.3 °F 57.2 °F 59% 29.82 in 10.0 mi South 13.8 mph 17.3 mph N/A   Mostly Cloudy
2:35 AM 72.5 °F 57.2 °F 59% 29.82 in 10.0 mi South 17.3 mph 23.0 mph N/A   Mostly Cloudy
2:55 AM 71.8 °F 57.9 °F 62% 29.83 in 10.0 mi SSW 17.3 mph 26.5 mph N/A Rain Light Rain
3:15 AM 69.3 °F 59.9 °F 72% 29.84 in 5.0 mi SSW 15.0 mph - 0.02 in Rain Heavy Rain
3:35 AM 68.0 °F 61.2 °F 79% 29.84 in 7.0 mi SSW 11.5 mph 18.4 mph 0.04 in Rain Rain
3:55 AM 67.5 °F 63.3 °F 87% 29.83 in 5.0 mi SW 5.8 mph - 0.06 in Rain Heavy Rain
4:15 AM 66.9 °F 63.5 °F 89% 29.83 in 4.0 mi SW 8.1 mph - 0.05 in Rain Light Rain
4:35 AM 66.7 °F 63.7 °F 90% 29.82 in 5.0 mi SW 5.8 mph - 0.05 in Rain Light Rain
4:55 AM 66.6 °F 63.7 °F 90% 29.82 in 3.0 mi WSW 11.5 mph 19.6 mph 0.10 in Rain Rain
5:15 AM 67.1 °F 63.5 °F 88% 29.81 in 7.0 mi SSW 13.8 mph - N/A Rain Light Rain
5:35 AM 66.9 °F 63.1 °F 88% 29.78 in 7.0 mi South 11.5 mph - N/A Rain Light Rain
5:55 AM 66.2 °F 62.6 °F 88% 29.78 in 10.0 mi South 15.0 mph 20.7 mph N/A   Overcast
6:15 AM 66.2 °F 61.7 °F 85% 29.77 in 10.0 mi South 12.7 mph 20.7 mph N/A   Light Drizzle
6:35 AM 66.2 °F 61.7 °F 85% 29.77 in 10.0 mi South 12.7 mph 20.7 mph N/A   Mostly Cloudy
6:55 AM 66.4 °F 62.1 °F 86% 29.74 in 10.0 mi South 19.6 mph 25.3 mph N/A Rain Light Rain
7:15 AM 66.4 °F 61.7 °F 85% 29.68 in 10.0 mi SSE 15.0 mph 28.8 mph N/A Rain Light Rain
7:35 AM 66.2 °F 61.3 °F 84% 29.70 in 10.0 mi South 15.0 mph 20.7 mph N/A   Scattered Clouds
7:55 AM 66.2 °F 60.8 °F 83% 29.72 in 10.0 mi South 13.8 mph 24.2 mph N/A   Clear
8:15 AM 66.6 °F 60.4 °F 81% 29.73 in 10.0 mi South 20.7 mph 25.3 mph N/A   Clear
8:35 AM 67.5 °F 61.2 °F 80% 29.73 in 10.0 mi South 20.7 mph 26.5 mph N/A   Scattered Clouds
8:55 AM 68.0 °F 61.7 °F 80% 29.74 in 10.0 mi SSW 20.7 mph 25.3 mph N/A   Mostly Cloudy
9:15 AM 68.2 °F 61.3 °F 79% 29.74 in 10.0 mi SSW 26.5 mph 32.2 mph N/A   Overcast
9:35 AM 68.9 °F 59.7 °F 72% 29.74 in 10.0 mi SSW 29.9 mph 34.5 mph N/A   Overcast
9:55 AM 68.7 °F 57.9 °F 68% 29.74 in 10.0 mi SSW 25.3 mph 34.5 mph N/A   Overcast
10:15 AM 68.9 °F 56.5 °F 65% 29.74 in 10.0 mi SSW 32.2 mph 39.1 mph N/A   Overcast
10:35 AM 69.1 °F 56.1 °F 63% 29.74 in 10.0 mi SSW 24.2 mph 36.8 mph N/A   Mostly Cloudy
10:55 AM 68.9 °F 56.1 °F 64% 29.73 in 10.0 mi SSW 23.0 mph 34.5 mph N/A   Mostly Cloudy
11:15 AM 69.6 °F 56.1 °F 62% 29.74 in 10.0 mi SSW 21.9 mph 32.2 mph N/A   Mostly Cloudy
11:35 AM 70.5 °F 56.3 °F 61% 29.73 in 10.0 mi SSW 24.2 mph 33.4 mph N/A   Mostly Cloudy
11:55 AM 71.1 °F 55.8 °F 58% 29.73 in 10.0 mi SSW 27.6 mph 41.4 mph N/A   Mostly Cloudy
12:15 PM 71.6 °F 55.6 °F 57% 29.73 in 10.0 mi SSW 24.2 mph 35.7 mph N/A   Mostly Cloudy
12:35 PM 71.4 °F 55.4 °F 57% 29.73 in 10.0 mi SSW 25.3 mph 35.7 mph N/A   Mostly Cloudy
12:55 PM 71.6 °F 55.2 °F 56% 29.72 in 10.0 mi SSW 27.6 mph 32.2 mph N/A   Mostly Cloudy
1:15 PM 72.3 °F 54.9 °F 54% 29.71 in 10.0 mi SSW 20.7 mph 32.2 mph N/A   Overcast
1:35 PM 71.8 °F 54.7 °F 55% 29.70 in 10.0 mi SSW 19.6 mph 28.8 mph N/A   Overcast
1:55 PM 72.3 °F 54.0 °F 52% 29.70 in 10.0 mi SSW 19.6 mph 29.9 mph N/A   Overcast
2:15 PM 73.0 °F 54.1 °F 51% 29.69 in 10.0 mi SSW 20.7 mph 27.6 mph N/A   Mostly Cloudy
2:35 PM 73.6 °F 54.0 °F 50% 29.69 in 10.0 mi SSW 19.6 mph 29.9 mph N/A   Scattered Clouds
2:55 PM 73.8 °F 53.1 °F 48% 29.69 in 10.0 mi SSW 25.3 mph 31.1 mph N/A   Mostly Cloudy
3:15 PM 73.8 °F 53.4 °F 49% 29.70 in 10.0 mi SW 20.7 mph 26.5 mph N/A   Overcast
3:35 PM 75.0 °F 52.0 °F 44% 29.70 in 10.0 mi SW 26.5 mph 36.8 mph N/A   Mostly Cloudy
3:55 PM 74.3 °F 51.8 °F 45% 29.71 in 10.0 mi WSW 23.0 mph 33.4 mph N/A   Mostly Cloudy
4:15 PM 73.0 °F 49.3 °F 43% 29.72 in 10.0 mi WSW 26.5 mph 38.0 mph N/A   Clear
4:35 PM 71.4 °F 48.9 °F 45% 29.74 in 10.0 mi WSW 28.8 mph 44.9 mph N/A   Mostly Cloudy
4:55 PM 64.8 °F 55.0 °F 71% 29.78 in 7.0 mi West 23.0 mph 31.1 mph N/A   Overcast
5:15 PM 63.3 °F 59.5 °F 87% 29.78 in 5.0 mi West 11.5 mph - N/A   Light Drizzle
5:35 PM 64.0 °F 58.5 °F 82% 29.78 in 10.0 mi West 12.7 mph 24.2 mph N/A   Mostly Cloudy
5:55 PM 63.9 °F 58.1 °F 81% 29.79 in 10.0 mi West 18.4 mph 24.2 mph N/A   Scattered Clouds
6:15 PM 63.9 °F 58.1 °F 81% 29.80 in 10.0 mi West 15.0 mph 21.9 mph N/A   Mostly Cloudy
6:35 PM 63.9 °F 57.2 °F 79% 29.82 in 10.0 mi West 15.0 mph 19.6 mph N/A   Mostly Cloudy
6:55 PM 63.9 °F 54.0 °F 70% 29.83 in 10.0 mi West 16.1 mph 20.7 mph N/A   Overcast
7:15 PM 63.3 °F 51.8 °F 66% 29.84 in 10.0 mi West 9.2 mph 17.3 mph N/A   Mostly Cloudy
7:35 PM 63.1 °F 52.0 °F 67% 29.85 in 10.0 mi West 9.2 mph - N/A   Overcast
7:55 PM 62.6 °F 52.0 °F 68% 29.87 in 10.0 mi WNW 8.1 mph - N/A   Overcast
8:15 PM 62.2 °F 51.6 °F 68% 29.88 in 10.0 mi WNW 6.9 mph - N/A   Overcast
8:35 PM 61.0 °F 51.4 °F 71% 29.89 in 10.0 mi WNW 4.6 mph - N/A   Mostly Cloudy
8:55 PM 60.8 °F 51.3 °F 71% 29.89 in 10.0 mi WNW 6.9 mph - N/A   Scattered Clouds
9:15 PM 61.0 °F 51.1 °F 70% 29.90 in 10.0 mi WNW 8.1 mph - N/A   Mostly Cloudy
9:35 PM 60.6 °F 50.0 °F 68% 29.91 in 10.0 mi NW 13.8 mph 17.3 mph N/A   Mostly Cloudy
9:55 PM 59.5 °F 49.1 °F 68% 29.92 in 10.0 mi NNW 11.5 mph - N/A   Mostly Cloudy
10:15 PM 58.3 °F 48.6 °F 70% 29.93 in 10.0 mi NNW 10.4 mph - N/A   Scattered Clouds
10:35 PM 57.6 °F 48.0 °F 70% 29.93 in 10.0 mi NW 9.2 mph - N/A   Clear
10:55 PM 56.7 °F 47.5 °F 71% 29.94 in 10.0 mi NW 6.9 mph - N/A   Clear
11:15 PM 55.4 °F 48.2 °F 77% 29.93 in 10.0 mi NW 6.9 mph - N/A   Clear
11:35 PM 55.6 °F 46.8 °F 72% 29.93 in 10.0 mi WNW 5.8 mph - N/A   Scattered Clouds
11:55 PM 54.7 °F 46.4 °F 74% 29.93 in 10.0 mi NW 4.6 mph - N/A   Scattered Clouds